Weather in Yevlakh

Azerbaijan     40°36′52″N   47°08′51″E
temp.,
°C
wind,
m/s
gust,
m/s
humid.,
%
clouds,
%
prec.,
mm/h
press.,
hPa
HPBL,
m
26 january, tue
tue2601:00+3nnw00550 0.0 102222
04:00+2nw235718 0.0 102022
07:00+1wnw236255 0.0 102123
10:00+4wnw245077 0.0 1020158
13:00+10wnw4727100 0.0 1019679
16:00+12sw232883 0.0 1018597
19:00+7sse34490 0.0 102139
22:00+5ese23510 0.0 102124
27 january, wed
wed2701:00+4se22530 0.0 102222
04:00+3e11570 0.0 102222
07:00+2nnw115923 0.0 102122
10:00+5wnw114920 0.0 102042
13:00+9ne003762 0.0 1018409
16:00+11wnw013438 0.0 1016498
19:00+8se114348 0.0 101722
22:00+6sse225253 0.0 101622
28 january, thu
thu2801:00+5nne115729 0.0 101522
04:00+5wnw115753 0.0 101322
07:00+5nw1157100 0.0 101122
10:00+7nnw1149100 0.0 101173
13:00+11nw3533100 0.0 1009444
16:00+13n2329100 0.0 1008527
19:00+10ssw2336100 0.0 100826
22:00+9ne1242100 0.0 100822
29 january, fri
fri2901:00+8wnw2242100 0.0 101022
04:00+7nw235069 0.0 101023
07:00+6nw34580 0.0 101148
10:00+9nne125149 0.0 1013102
13:00+12ese3241100 0.0 1012468
16:00+13ese2239100 0.0 1011690
19:00+10se3367100 0.0 101366
22:00+8sse3478100 0.0 101385
30 january, sat
sat3001:00+6sw1183100 0.0 101322
04:00+5sw228781 0.0 101325
07:00+5nw357260 0.0 101386
10:00+7wnw146068 0.0 1013298
13:00+11n244618 0.0 1011820
16:00+13ene12419 0.0 1010734
19:00+9ese47650 0.0 1012175
22:00+7ese37790 0.0 1013159